Location: Bjelajci
(45.0103°N, 16.1758°E)
Time: 09:42:47
(UTC+00:00)

Cosmos 1933 Rocket - Pass Details

Date: 14 July 2020
Orbit: 607 x 629 km, 82.5° (Epoch: 07 August)

Event Time Altitude Azimuth Distance (km) Brightness Sun altitude
Exits shadow 00:23:24 47° 248° (WSW) 814 3.8 -20.8°
Maximum altitude 00:24:06 52° 282° (WNW) 758 3.9 -20.7°
Drops below altitude 10° 00:28:22 10° 359° (N) 1,971 7.1 -20.5°
Sets 00:30:39 0° 5° (N) 2,882 8.3 -20.3°
